DateTime,DeltaTime,Roll,TargetAngle,Position,Power
2022-06-03 10:36:07.885,0,-1.26,-10.13,7,57.05
2022-06-03 10:36:08.000,0.114996358752251,-1.32,-8.46,13,61.44
2022-06-03 10:36:08.115,0.230002775788307,-1.63,-10.77,19,90
2022-06-03 10:36:08.229,0.344003364443779,-2.21,-13.98,17,90
2022-06-03 10:36:08.344,0.45899972319603,-0.03,6.07,11,11.45
2022-06-03 10:36:08.459,0.57399608194828,-1.82,-17.93,7,90
2022-06-03 10:36:08.573,0.687996670603752,-0.81,-1.89,5,6.55
2022-06-03 10:36:08.688,0.803003087639809,-1.03,-8.09,3,54.65
2022-06-03 10:36:08.803,0.917999446392059,-0.35,-1.7,3,6.34
2022-06-03 10:36:08.917,1.03200003504753,-0.85,-8.63,5,52.46
2022-06-03 10:36:09.033,1.14800222218037,-0.34,-2.4,9,21.79
2022-06-03 10:36:09.147,1.26200281083584,-1.3,-12.28,8,90
2022-06-03 10:36:09.257,1.37200020253658,-0.1,1.57,6,4.27
2022-06-03 10:36:09.373,1.48800238966942,-0.69,-8.51,3,64.78
2022-06-03 10:36:09.487,1.60200297832489,-0.84,-7.07,0,31.36
2022-06-03 10:36:09.602,1.71699933707714,-1,-7.77,-4,26.57
2022-06-03 10:36:09.716,1.83099992573261,-1.04,-7.31,-4,8.02
2022-06-03 10:36:09.831,1.94599628448486,-0.94,-6.38,-4,9.48
2022-06-03 10:36:09.945,2.05999687314034,-1.31,-9.82,-3,28.14
2022-06-03 10:36:10.061,2.17599906027317,-1.59,-10.39,0,32.03
2022-06-03 10:36:10.175,2.28999964892864,-1.56,-9.03,0,38.84
2022-06-03 10:36:10.289,2.40400023758411,-1.47,-8.37,1,34.21
2022-06-03 10:36:10.404,2.51899659633636,-1.82,-11.61,-2,57.08
2022-06-03 10:36:10.519,2.63400301337242,-2.13,-12.54,-4,36.19
2022-06-03 10:36:10.633,2.74800360202789,-1.99,-10.12,-5,17.75
2022-06-03 10:36:10.748,2.86299996078014,-1.64,-7.87,-5,7.85
2022-06-03 10:36:10.863,2.97799631953239,-1.78,-10.53,-3,25.71
2022-06-03 10:36:10.978,3.09300273656845,-1.88,-10.7,0,33.58
2022-06-03 10:36:11.088,3.2030001282692,-2.27,-13.45,4,60.21
2022-06-03 10:36:11.202,3.31700071692467,-1.97,-9.32,5,48.99
2022-06-03 10:36:11.317,3.43199707567692,-1.71,-8.49,3,50
2022-06-03 10:36:11.432,3.54700349271297,-1.94,-11.55,3,55.11
2022-06-03 10:36:11.547,3.66199985146523,-1.98,-10.85,1,50.22
2022-06-03 10:36:11.662,3.77699621021748,-2.28,-13.07,2,52.22
2022-06-03 10:36:11.776,3.89099679887295,-1.5,-5.43,4,18.7
2022-06-03 10:36:11.890,4.00499738752842,-1.92,-12.33,6,72.63
2022-06-03 10:36:12.006,4.12099957466125,-1.94,-10.56,10,61.45
2022-06-03 10:36:12.121,4.23599593341351,-2.38,-14.04,10,90
2022-06-03 10:36:12.235,4.34999652206898,-2.88,-16.22,8,90
2022-06-03 10:36:12.350,4.46500293910503,-1.41,-2.14,7,16.34
2022-06-03 10:36:12.464,4.57900352776051,-1.95,-12.88,6,87.08
2022-06-03 10:36:12.579,4.69399988651276,-1.24,-4.84,6,28.18
2022-06-03 10:36:12.694,4.80899624526501,-1.14,-7.09,7,52.25
2022-06-03 10:36:12.809,4.92400266230106,-1.36,-9.32,9,64.5
2022-06-03 10:36:12.923,5.03800325095654,-0.76,-3.54,10,41.33
2022-06-03 10:36:13.038,5.15299960970879,-1.43,-11.55,10,90
2022-06-03 10:36:13.149,5.26400282979012,-1.16,-6.44,9,54.01
2022-06-03 10:36:13.263,5.37800341844559,-1.02,-6.45,6,55.74
2022-06-03 10:36:13.377,5.49200400710106,-0.9,-6.16,4,40.58
2022-06-03 10:36:13.492,5.60700036585331,-0.65,-4.66,4,28.51
2022-06-03 10:36:13.607,5.72199672460556,-1.34,-11.31,5,67.13
2022-06-03 10:36:13.722,5.83700314164162,-0.49,-1.45,7,12.18
2022-06-03 10:36:13.836,5.95100373029709,-0.51,-5.29,8,53.62
2022-06-03 10:36:13.951,6.06600008904934,-0.36,-4.01,9,43.96
2022-06-03 10:36:14.066,6.18099644780159,0.18,-0.3,6,31.88
2022-06-03 10:36:14.181,6.29600286483765,-0.45,-7.79,3,58.74
2022-06-03 10:36:14.295,6.41000345349312,-0.3,-3.78,1,15.84
2022-06-03 10:36:14.410,6.52499981224537,-0.71,-7.73,1,35.39
2022-06-03 10:36:14.524,6.63900040090084,-0.07,-0.8,2,-1.03
2022-06-03 10:36:14.639,6.75399675965309,-0.28,-5.28,5,35.67
2022-06-03 10:36:14.754,6.86900317668915,-0.65,-7.35,7,54.48
2022-06-03 10:36:14.864,6.97900056838989,-0.8,-6.92,9,53.47
2022-06-03 10:36:14.979,7.09399692714214,-1.39,-11.07,5,82.17
2022-06-03 10:36:15.094,7.2090033441782,-0.78,-3.52,2,16.32
2022-06-03 10:36:15.209,7.32399970293045,-0.44,-3.47,0,16.96
2022-06-03 10:36:15.323,7.43800029158592,-0.57,-6.05,0,24.38
2022-06-03 10:36:15.438,7.55299665033817,-0.6,-5.7,1,22.42
2022-06-03 10:36:15.552,7.66699723899364,-1.14,-9.85,4,49.15
2022-06-03 10:36:15.667,7.7820036560297,0.01,1.75,8,-2.97
2022-06-03 10:36:15.782,7.89700001478195,-0.71,-9.15,10,83.08
2022-06-03 10:36:15.896,8.01100060343742,-1.24,-10.25,8,78.81
2022-06-03 10:36:16.012,8.12700279057026,-0.48,-1.8,6,22.46
2022-06-03 10:36:16.126,8.24100337922573,-0.82,-7.85,3,57.36
2022-06-03 10:36:16.240,8.3550039678812,-0.36,-2.63,1,10
2022-06-03 10:36:16.355,8.47000032663345,-0.55,-6.21,1,29.22
2022-06-03 10:36:16.470,8.5849966853857,-0.44,-4.43,4,18.89
2022-06-03 10:36:16.581,8.69599990546703,-0.14,-2.53,8,27.21
2022-06-03 10:36:16.695,8.81000049412251,-0.37,-5.69,10,62.19
2022-06-03 10:36:16.809,8.92400108277798,0.38,1.32,11,25.5
2022-06-03 10:36:16.924,9.03899744153023,0.03,-4.73,8,68.1
2022-06-03 10:36:17.039,9.15400385856628,-0.32,-6.08,5,49.82
2022-06-03 10:36:17.154,9.26900021731853,-0.26,-4.04,2,26.77
2022-06-03 10:36:17.269,9.38399657607079,-0.27,-4.32,1,20.61
2022-06-03 10:36:17.383,9.49799716472626,0.55,2.28,3,-13.29
2022-06-03 10:36:17.498,9.61300358176231,-0.08,-6.39,6,49.95
2022-06-03 10:36:17.613,9.72799994051456,0.01,-2.92,8,32.33
2022-06-03 10:36:17.727,9.84200052917004,-0.18,-4.85,10,53.4
2022-06-03 10:36:17.842,9.95699688792229,-0.4,-5.74,9,61.87
2022-06-03 10:36:17.956,10.0709974765778,0.93,5.92,6,-5.22
2022-06-03 10:36:18.072,10.1869996637106,0.26,-5.31,3,52.84
2022-06-03 10:36:18.186,10.3010002523661,0.18,-2.98,1,15.06
2022-06-03 10:36:18.301,10.4159966111183,-0.07,-4.7,0,21.25
2022-06-03 10:36:18.411,10.5260040611029,-0.02,-3.2,1,9.59
2022-06-03 10:36:18.526,10.6410004198551,0.41,0.07,4,1.82
2022-06-03 10:36:18.641,10.7559967786074,-0.33,-7.82,11,59.37
2022-06-03 10:36:18.756,10.8710031956434,0.43,1.61,8,31.48
2022-06-03 10:36:18.870,10.9850037842989,-0.33,-7.88,6,67.99
2022-06-03 10:36:18.984,11.0990043729544,0.0700000000000001,-1.3,3,15.68
2022-06-03 10:36:19.099,11.2140007317066,0.43,-0.2,0,7.11
2022-06-03 10:36:19.214,11.3289970904589,0.18,-3.77,0,15.64
2022-06-03 10:36:19.329,11.4440035074949,0.21,-2.39,0,8.31
2022-06-03 10:36:19.443,11.5580040961504,-0.08,-4.89,2,22.88
2022-06-03 10:36:19.558,11.6730004549026,0.24,-1.02,5,10.67
2022-06-03 10:36:19.673,11.7879968136549,-0.15,-5.63,6,51.47
2022-06-03 10:36:19.787,11.9019974023104,-0.61,-7.55,7,53.86
2022-06-03 10:36:19.902,12.0170038193464,-0.47,-4.46,5,39.57
2022-06-03 10:36:20.013,12.127996981144,-0.69,-6.82,3,45.17
2022-06-03 10:36:20.127,12.2419975697994,-0.39,-3.44,1,16.74
2022-06-03 10:36:20.242,12.3570039868355,-0.51,-5.76,1,25.97
2022-06-03 10:36:20.357,12.4720003455877,-0.47,-4.85,2,21.61
2022-06-03 10:36:20.472,12.58699670434,-0.71,-7.02,6,39.18
2022-06-03 10:36:20.586,12.7009972929955,-1.2,-9.92,7,70.4
2022-06-03 10:36:20.701,12.8160037100315,-0.07,1.35,7,7.36
2022-06-03 10:36:20.815,12.930004298687,-0.73,-8.92,7,72.75
2022-06-03 10:36:20.931,13.045996427536,-0.67,-5.53,6,41.82
2022-06-03 10:36:21.045,13.1599970161915,-0.87,-7.41,3,51.78
2022-06-03 10:36:21.159,13.273997604847,-0.57,-4.12,2,18.05
2022-06-03 10:36:21.274,13.389004021883,0.02,-0.69,3,4.78
2022-06-03 10:36:21.389,13.5040003806353,-0.78,-9.7,5,60.89
2022-06-03 10:36:21.504,13.6189967393875,-0.35,-2.74,7,22.05
2022-06-03 10:36:21.618,13.732997328043,-0.59,-6.61,8,58.66
2022-06-03 10:36:21.733,13.848003745079,-0.65,-5.94,9,51.9
2022-06-03 10:36:21.843,13.9580011367798,0.4,2.69,6,13.29
2022-06-03 10:36:21.958,14.072997495532,-0.18,-6.5,3,54.82
2022-06-03 10:36:22.072,14.1869980841875,-0.12,-3.55,3,16.39
2022-06-03 10:36:22.188,14.3030002713203,-0.56,-7.31,3,43.6
2022-06-03 10:36:22.303,14.4179966300726,-0.18,-2.33,3,14.69
2022-06-03 10:36:22.417,14.5319972187281,0.18,-1.06,6,15.36
2022-06-03 10:36:22.531,14.6459978073835,-0.45,-7.8,8,66.11
2022-06-03 10:36:22.647,14.7619999945164,-0.34,-4.07,8,42.27
2022-06-03 10:36:22.761,14.8760005831718,-0.88,-8.98,5,70.23
2022-06-03 10:36:22.875,14.9900011718273,-0.56,-4.02,3,22.84
2022-06-03 10:36:22.990,15.1049975305796,-0.25,-2.9,1,18.5
2022-06-03 10:36:23.105,15.2200039476156,-0.41,-5.58,0,26.55
2022-06-03 10:36:23.219,15.3340045362711,-0.2,-3.14,3,9.04
2022-06-03 10:36:23.335,15.4499966651201,-0.72,-8.27,5,54.52
2022-06-03 10:36:23.445,15.5600041151047,0.32,2.43,8,-1.95
2022-06-03 10:36:23.559,15.6740047037601,-0.13,-5.78,8,65.8
2022-06-03 10:36:23.674,15.7890010625124,-0.46,-6.49,6,54.41
2022-06-03 10:36:23.788,15.9030016511679,-0.33,-3.96,3,30.83
2022-06-03 10:36:23.903,16.0179980099201,-0.4,-5.13,2,28.52
2022-06-03 10:36:24.018,16.1330044269562,-0.01,-1.67,0,9.36
2022-06-03 10:36:24.133,16.2480007857084,-0.44,-6.81,2,31.23
2022-06-03 10:36:24.247,16.3620013743639,-0.07,-1.95,5,13.46
2022-06-03 10:36:24.362,16.4769977331161,-0.31,-5.51,8,50.38
2022-06-03 10:36:24.478,16.592999920249,-0.3,-4.39,9,48.18
2022-06-03 10:36:24.592,16.7070005089045,0.46,1.7,7,20.29
2022-06-03 10:36:24.706,16.8210010975599,-0.23,-7.19,4,62.09
2022-06-03 10:36:24.821,16.9359974563122,-0.09,-3.04,2,16.62
2022-06-03 10:36:24.935,17.0499980449677,-0.42,-6.32,1,33.05
2022-06-03 10:36:25.051,17.1660002321005,-0.17,-2.85,1,9.77
2022-06-03 10:36:25.161,17.2759976238012,0.26,-0.51,4,4.26
2022-06-03 10:36:25.276,17.3910040408373,-0.46,-8.19,8,60.92
2022-06-03 10:36:25.390,17.5050046294928,-0.53,-5.55,11,51.81
2022-06-03 10:36:25.505,17.620000988245,-1.37,-12.12,10,90
2022-06-03 10:36:25.620,17.7349973469973,-0.64,-2.48,7,32.13
2022-06-03 10:36:25.734,17.8489979356527,-0.32,-3.13,3,35.45
2022-06-03 10:36:25.849,17.9640043526888,-0.53,-6.2,1,34.8
2022-06-03 10:36:25.964,18.079000711441,-0.7,-6.67,2,29.2
2022-06-03 10:36:26.078,18.1930013000965,-0.88,-7.34,3,40.28
2022-06-03 10:36:26.193,18.3079976588488,-0.14,-0.66,7,10.54
2022-06-03 10:36:26.308,18.4230040758848,-0.59,-7.43,10,72.19
2022-06-03 10:36:26.423,18.5380004346371,-0.33,-3.46,12,48.4
2022-06-03 10:36:26.537,18.6520010232925,-0.64,-7,9,77.41
2022-06-03 10:36:26.652,18.7669973820448,-0.91,-7.9,5,59.62
2022-06-03 10:36:26.766,18.8809979707003,-0.1,-0.16,2,3.64
2022-06-03 10:36:26.881,18.9960043877363,-0.39,-6.01,0,33.78
2022-06-03 10:36:26.992,19.1069975495338,-0.33,-4.29,1,12.14
2022-06-03 10:36:27.106,19.2209981381893,-0.66,-7.26,3,37.3
2022-06-03 10:36:27.221,19.3360045552254,0,-0.39,7,8.49
2022-06-03 10:36:27.336,19.4510009139776,-0.77,-9.59,9,81.22
2022-06-03 10:36:27.451,19.5659972727299,-0.64,-5.08,10,48.68
2022-06-03 10:36:27.565,19.6799978613853,-0.86,-7.53,6,69.23
2022-06-03 10:36:27.680,19.7950042784214,-1.05,-8.01,3,47.11
2022-06-03 10:36:27.794,19.9090048670769,-0.53,-3.02,0,11.72
2022-06-03 10:36:27.909,20.0240012258291,-0.83,-7.72,-3,31.29
2022-06-03 10:36:28.025,20.140003412962,-0.71,-5.39,0,3.11
2022-06-03 10:36:28.138,20.2529981732368,-0.98,-8.18,3,39.24
2022-06-03 10:36:28.253,20.3680045902729,-0.4,-2.3,5,18.02
2022-06-03 10:36:28.368,20.4830009490252,-1.26,-11.73,7,79.46
2022-06-03 10:36:28.482,20.5970015376806,-0.97,-5.65,7,41.35
2022-06-03 10:36:28.597,20.7119978964329,-1.23,-9.03,3,64.77
2022-06-03 10:36:28.712,20.8270043134689,-1.22,-7.78,1,32.9
2022-06-03 10:36:28.822,20.9370017051697,-0.91,-5.35,0,18.61
2022-06-03 10:36:28.937,21.0519980639219,-1.22,-9.18,0,39.16
2022-06-03 10:36:29.052,21.167004480958,-0.98,-5.9,1,19.86
2022-06-03 10:36:29.166,21.2810050696135,-1.23,-9.01,4,45.31
2022-06-03 10:36:29.281,21.3960014283657,-0.39,-1.05,6,12.12
2022-06-03 10:36:29.396,21.510997787118,-0.83,-8.31,8,65.44
2022-06-03 10:36:29.511,21.626004204154,-1.01,-7.9,7,60.79
2022-06-03 10:36:29.625,21.7400047928095,-0.99,-6.89,5,48.65
2022-06-03 10:36:29.739,21.854005381465,-0.94,-6.58,3,39.72
2022-06-03 10:36:29.854,21.9690017402172,-0.55,-3.69,2,19.35
2022-06-03 10:36:29.969,22.0839980989695,-0.97,-8.71,3,46.48
2022-06-03 10:36:30.084,22.1990045160055,-0.42,-2.47,7,13.33
2022-06-03 10:36:30.198,22.313005104661,-0.96,-9.29,7,74.82
2022-06-03 10:36:30.313,22.4280014634132,-0.61,-4.05,8,33.94
2022-06-03 10:36:30.428,22.5429978221655,-0.24,-2.59,7,39.5
2022-06-03 10:36:30.539,22.6540010422468,-0.97,-10.14,6,73.85
2022-06-03 10:36:30.653,22.7680016309023,-0.65,-4.28,5,28.97
2022-06-03 10:36:30.768,22.8829979896545,-0.82,-7.15,4,48.26
2022-06-03 10:36:30.883,22.9980044066906,-0.14,-0.84,4,8.29
2022-06-03 10:36:30.997,23.1120049953461,-0.45,-6.4,6,46.11
2022-06-03 10:36:31.112,23.2270013540983,-0.82,-7.95,7,56.16
2022-06-03 10:36:31.226,23.3410019427538,-0.82,-6.39,8,48.67
2022-06-03 10:36:31.342,23.4570041298866,-0.94,-7.36,7,59.31
2022-06-03 10:36:31.456,23.5710047185421,0.0700000000000001,1.38,6,7.95
2022-06-03 10:36:31.572,23.6869968473911,-0.17,-4.98,4,48.1
2022-06-03 10:36:31.685,23.8000016659498,-0.02,-2.74,3,19.34
2022-06-03 10:36:31.801,23.9160038530827,-0.47,-7.08,3,42.2
2022-06-03 10:36:31.915,24.0300044417381,-0.34,-3.97,6,23.18
2022-06-03 10:36:32.030,24.1450008004904,0.6,2.96,7,8.27
2022-06-03 10:36:32.144,24.2590013891459,0.0600000000000001,-5.44,8,60.7
2022-06-03 10:36:32.255,24.3700046092272,0.13,-2.55,7,36.49
2022-06-03 10:36:32.369,24.4840051978827,-0.28,-6.19,3,53.1
2022-06-03 10:36:32.484,24.5990015566349,-0.0599999999999999,-2.56,2,10.5
2022-06-03 10:36:32.599,24.7139979153872,0.25,-1.03,1,8.36
2022-06-03 10:36:32.713,24.8279985040426,-0.0499999999999999,-4.86,2,26.12
2022-06-03 10:36:32.828,24.9430049210787,0.15,-1.9,4,13.14
2022-06-03 10:36:32.943,25.0580012798309,-0.7,-9.6,7,64.62
2022-06-03 10:36:33.057,25.1720018684864,-0.29,-2.6,9,30.19
2022-06-03 10:36:33.172,25.2869982272387,-0.51,-6.21,8,64.37
2022-06-03 10:36:33.287,25.4020046442747,-0.99,-9.12,3,65.7
2022-06-03 10:36:33.402,25.517001003027,-0.78,-5.31,1,19.11
2022-06-03 10:36:33.516,25.6310015916824,-0.98,-7.79,0,33.82
2022-06-03 10:36:33.631,25.7459979504347,-0.49,-3.03,0,5.19
2022-06-03 10:36:33.745,25.8599985390902,-0.62,-6.19,3,28.84
2022-06-03 10:36:33.856,25.9710017591715,-0.76,-6.71,7,42.89
2022-06-03 10:36:33.970,26.085002347827,-0.47,-3.83,11,44.75
2022-06-03 10:36:34.085,26.1999987065792,-0.91,-8.62,13,88.22
2022-06-03 10:36:34.200,26.3150051236153,0.47,4.45,9,17.05
2022-06-03 10:36:34.315,26.4300014823675,0.29,-3.04,5,49.78
2022-06-03 10:36:34.429,26.544002071023,0.0600000000000001,-4.15,1,30
2022-06-03 10:36:34.544,26.6589984297752,0.12,-2.62,1,6.94
2022-06-03 10:36:34.659,26.7740048468113,0.12,-2.85,2,15.68
2022-06-03 10:36:34.773,26.8880054354668,0.86,3.05,6,-8.79
2022-06-03 10:36:34.888,27.003001794219,0.52,-2.89,12,47.27
2022-06-03 10:36:35.003,27.1179981529713,0.25,-3.59,15,66.35
2022-06-03 10:36:35.117,27.2319987416267,0.24,-2.44,13,66.82
2022-06-03 10:36:35.233,27.3480009287596,-0.54,-8.72,10,85.78
2022-06-03 10:36:35.347,27.462001517415,1.2,8.72,5,-22.09
2022-06-03 10:36:35.462,27.5769978761673,0.58,-3.94,2,43.18
2022-06-03 10:36:35.576,27.6909984648228,0.38,-2.78,0,13.12
2022-06-03 10:36:35.686,27.8009958565235,0.14,-3.86,1,14.4
2022-06-03 10:36:35.802,27.9169980436563,0.69,1.59,4,-6.29
2022-06-03 10:36:35.917,28.0320044606924,-0.03,-6.54,7,55.16
2022-06-03 10:36:36.031,28.1460050493479,0.4,0.04,9,21.02
2022-06-03 10:36:36.145,28.2600056380033,-0.29,-7.4,7,73.55
2022-06-03 10:36:36.261,28.3759977668524,-0.39,-5.23,5,39.69
2022-06-03 10:36:36.375,28.4899983555079,0.21,0.1,1,9.61
2022-06-03 10:36:36.489,28.6039989441633,-0.07,-4.79,-2,24.11
2022-06-03 10:36:36.603,28.7179995328188,-0.4,-6.25,-3,15.76
2022-06-03 10:36:36.719,28.8340017199516,-0.6,-6.47,-2,14.3
2022-06-03 10:36:36.833,28.9480023086071,-0.35,-3.53,0,5.89
2022-06-03 10:36:36.948,29.0629986673594,-0.43,-5.22,2,27.07
2022-06-03 10:36:37.063,29.1780050843954,-0.49,-5.39,4,33.54
2022-06-03 10:36:37.177,29.2920056730509,-0.97,-9.07,4,59.78
2022-06-03 10:36:37.293,29.4079978018999,-0.95,-6.78,2,36.78
2022-06-03 10:36:37.403,29.5180052518845,-0.75,-5.21,0,22.94
2022-06-03 10:36:37.517,29.6320058405399,-0.79,-6.42,-2,24.3
2022-06-03 10:36:37.633,29.747997969389,-0.79,-6.26,0,15.12
2022-06-03 10:36:37.747,29.8619985580444,-1.07,-8.55,0,39.82
2022-06-03 10:36:37.862,29.9770049750805,-1.1,-7.55,2,29.96
2022-06-03 10:36:37.976,30.091005563736,-0.53,-2.81,4,18.27
2022-06-03 10:36:38.091,30.2060019224882,-1.2,-10.67,7,71.61
2022-06-03 10:36:38.205,30.3200025111437,-0.79,-4.5,5,38.29
2022-06-03 10:36:38.321,30.4360046982765,-1.34,-10.67,6,64.36
